Location: Torrington
(42.0650°N, 104.1810°W)
Time: 18:08:14
(UTC-06:00)

Amateur Radio Satellites - All Passes

Search period start: 28 May 2015 17:38
Search period end: 29 May 2015 17:38
Location: Torrington, 42.0650°N, 104.1810°W

Satellite Date Start Highest point End Downlink Frequencies (MHz)
Time Altitude Azimuth
MOZHAYETS 4 28 May 17:45:37 17:50:14 84° 282° (WNW) 17:54:49
Cubesat XI-IV 28 May 17:47:35 17:52:31 42° 69° (ENE) 17:57:32 437.490
JAS-2 28 May 17:51:46 17:54:08 12° 273° (W) 17:55:58 435.910
AO-7 28 May 17:56:56 18:02:37 19° 272° (W) 18:07:52 29.400- 29.500
BEESAT 2 28 May 18:14:45 18:18:52 84° 303° (WNW) 18:23:02 435.950
AIST 2 28 May 18:17:05 18:20:45 29° 115° (ESE) 18:24:31 435.215
HO-68 28 May 18:34:13 18:36:35 12° 50° (NE) 18:39:22 435.675
YUBILEINY 28 May 18:34:49 18:43:29 66° 78° (ENE) 18:52:07 435.215
Cosmos 2491 28 May 18:40:14 18:47:52 36° 86° (E) 18:55:44 435.465 / 435.565
GOMX 1 28 May 18:52:33 18:54:01 11° 59° (ENE) 18:55:48 467.674
BRITE-PL 28 May 18:57:16 19:00:50 19° 63° (ENE) 19:04:43 437.365/2234.400
BEESAT 3 28 May 19:02:12 19:05:39 25° 314° (NW) 19:09:07 437.485
CUTE-I 28 May 19:06:25 19:11:24 40° 263° (W) 19:16:23 437.470
RS-15 28 May 19:17:55 19:29:01 50° 248° (WSW) 19:40:21 29.354- 29.394
Cubesat XI-IV 28 May 19:28:23 19:32:49 26° 267° (W) 19:37:09 437.490
CANX-2 28 May 19:29:01 19:30:42 12° 64° (ENE) 19:32:35 2200.000
CUBESAT XI-V 28 May 19:29:33 19:34:16 85° 284° (WNW) 19:38:59 437.345
CUTE 1.7 + AOD 2 28 May 19:32:21 19:33:57 12° 64° (ENE) 19:35:45 437.475
DOVE 4 28 May 19:41:21 19:45:07 21° 65° (ENE) 19:49:06 437.250
AIST 1 28 May 19:43:00 19:45:26 16° 87° (E) 19:48:04
SEEDS 28 May 19:50:55 19:53:24 16° 66° (ENE) 19:56:01 437.485
AIST 2 28 May 19:55:29 19:59:18 30° 312° (NW) 20:03:07 435.215
BEESAT 2 28 May 19:55:45 19:57:39 13° 323° (NW) 19:59:27 435.950
STRAND 1 28 May 19:56:22 20:01:31 68° 102° (ESE) 20:06:39 437.568
COMPASS 1 28 May 20:00:57 20:03:28 16° 66° (ENE) 20:06:07 437.405
PRISM 28 May 20:03:11 20:07:22 82° 284° (WNW) 20:11:32 437.425
AAUSAT CUBESAT 2 28 May 20:11:08 20:13:53 18° 67° (ENE) 20:16:45 437.432
HO-68 28 May 20:16:02 20:23:01 59° 69° (ENE) 20:30:04 435.675
M-CUBED/EXP-1 PRIME 28 May 20:16:35 20:19:41 37° 104° (ESE) 20:22:50 437.505
AUBIESAT-1 28 May 20:22:49 20:25:57 38° 104° (ESE) 20:29:07 437.475
GOMX 1 28 May 20:26:03 20:31:14 76° 75° (ENE) 20:36:43 467.674
UWE-3 28 May 20:29:30 20:31:02 12° 62° (ENE) 20:32:47 435.000/436.395/437.385
Cosmos 2504 28 May 20:30:07 20:36:34 35° 71° (ENE) 20:43:06 435.465 / 435.565
YUBILEINY 28 May 20:32:44 20:39:42 27° 277° (W) 20:46:22 435.215
BRITE-PL 28 May 20:33:42 20:38:48 62° 260° (W) 20:44:18 437.365/2234.400
Cosmos 2491 28 May 20:35:59 20:44:31 51° 286° (WNW) 20:53:03 435.465 / 435.565
CINEMA 3 28 May 20:41:13 20:45:47 37° 70° (ENE) 20:50:25 145.822/145.860
CANX-2 28 May 21:01:55 21:06:09 64° 259° (WSW) 21:10:24 2200.000
CUTE 1.7 + AOD 2 28 May 21:05:09 21:09:23 66° 259° (W) 21:13:37 437.475
CUBESAT XI-V 28 May 21:10:41 21:11:02 10° 299° (WNW) 21:11:07 437.345
ZACube-1 28 May 21:13:11 21:16:51 25° 68° (ENE) 21:20:36 437.345
UKube-1 28 May 21:13:28 21:14:46 11° 62° (ENE) 21:16:16 .
DOVE 4 28 May 21:17:25 21:22:28 54° 261° (W) 21:27:41 437.250
AIST 1 28 May 21:18:42 21:22:45 42° 283° (WNW) 21:26:52
CUBEBUG 2 28 May 21:19:25 21:23:56 44° 72° (ENE) 21:28:28 437.445
Oscar 11 28 May 21:20:31 21:24:40 47° 73° (ENE) 21:28:51 145.826/435.025
DX 1 28 May 21:23:48 21:26:23 16° 64° (ENE) 21:29:08 434.975-435.025
SEEDS 28 May 21:24:46 21:28:52 47° 261° (W) 21:32:57 437.485
COMPASS 1 28 May 21:34:48 21:38:50 45° 262° (W) 21:42:51 437.405
STRAND 1 28 May 21:37:00 21:40:13 16° 298° (WNW) 21:43:16 437.568
AAUSAT CUBESAT 2 28 May 21:45:18 21:49:14 40° 262° (W) 21:53:10 437.432
VELOX 1 28 May 21:46:12 21:48:26 14° 63° (ENE) 21:50:51 145.980
M-CUBED/EXP-1 PRIME 28 May 21:52:49 21:54:18 12° 299° (WNW) 21:55:40 437.505
ESTCUBE 1 28 May 21:58:11 21:59:23 11° 62° (ENE) 22:00:49 437.505/2401.250
DELFI C3 28 May 21:58:37 22:02:39 88° 256° (WSW) 22:06:42 145.870
AUBIESAT-1 28 May 21:59:04 22:00:29 12° 299° (WNW) 22:01:47 437.475
UWE-3 28 May 22:02:16 22:06:58 83° 259° (WSW) 22:11:39 435.000/436.395/437.385
HO-68 28 May 22:05:13 22:11:14 27° 267° (W) 22:17:03 435.675
FUNcube-1 28 May 22:06:52 22:11:27 86° 81° (E) 22:16:02 145.935
GOMX 1 28 May 22:07:17 22:10:06 14° 275° (W) 22:12:42 467.674
DANDE 28 May 22:07:49 22:08:24 10° 46° (NE) 22:09:30 436.750
AISAT 28 May 22:16:46 22:20:35 29° 69° (ENE) 22:24:30 437.250
ANTELSAT 28 May 22:18:44 22:19:07 10° 86° (E) 22:19:46 437.575/2403.000
CINEMA 3 28 May 22:18:47 22:23:02 27° 267° (W) 22:27:15 145.822/145.860
CUSAT 1 28 May 22:23:05 22:26:49 15° 53° (NE) 22:30:26 437.405
Cosmos 2504 28 May 22:23:23 22:30:03 41° 271° (W) 22:36:38 435.465 / 435.565
HUMSAT D 28 May 22:25:46 22:30:04 65° 74° (ENE) 22:34:20 437.325/437.525
ISS 28 May 22:34:10 22:37:00 29° 137° (SE) 22:39:52 145.825
UKube-1 28 May 22:46:02 22:50:21 75° 257° (WSW) 22:54:42 .
TIGRISAT 28 May 22:48:04 22:51:24 22° 92° (E) 22:54:48 435.000
ZACube-1 28 May 22:48:52 22:53:04 34° 264° (W) 22:57:14 437.345
POLYITAN 1 28 May 22:51:07 22:51:52 11° 87° (E) 22:52:53 437.675
50 SAT 28 May 22:53:19 22:57:18 75° 76° (ENE) 23:01:18 437.505
CUBEBUG 2 28 May 22:57:16 23:00:51 20° 269° (W) 23:04:17 437.445
DX 1 28 May 22:58:01 23:02:15 51° 260° (W) 23:06:33 434.975-435.025
Oscar 11 28 May 22:58:29 23:01:10 15° 270° (W) 23:03:41 145.826/435.025
GONETS M04 28 May 23:04:25 23:11:17 26° 63° (ENE) 23:18:23
UNISAT 6 28 May 23:08:55 23:13:00 38° 97° (E) 23:17:01 437.425
CUBEBUG 1 28 May 23:12:21 23:16:37 55° 73° (ENE) 23:20:56 437.445
NANOSAT C BR1 28 May 23:16:27 23:19:37 21° 92° (E) 23:22:53 145.865
VELOX 1 28 May 23:20:08 23:24:32 62° 259° (W) 23:28:58 145.980
QB50P2 28 May 23:25:44 23:29:21 27° 95° (E) 23:33:01 145.880/145.840
ESTCUBE 1 28 May 23:31:11 23:35:40 81° 257° (WSW) 23:40:11 437.505/2401.250
POPSAT HIP 1 28 May 23:37:16 23:41:11 34° 96° (E) 23:45:06 437.405
DUCHIFAT 1 28 May 23:37:28 23:41:20 34° 96° (E) 23:45:13 145.980
SPROUT 28 May 23:43:27 23:47:18 33° 70° (ENE) 23:51:13 437.525
DANDE 28 May 23:46:39 23:54:13 51° 72° (ENE) 00:00:10 436.750
BUGSAT 1 28 May 23:50:57 23:54:49 33° 96° (E) 23:58:41 437.445
ANTELSAT 28 May 23:52:10 23:56:33 70° 284° (WNW) 00:00:47 437.575/2403.000
AISAT 28 May 23:53:20 23:57:10 27° 265° (W) 00:00:57 437.250
TISAT 1 28 May 23:58:23 00:02:14 35° 71° (ENE) 00:06:09 437.305
CUSAT 1 29 May 00:04:00 00:11:11 84° 79° (E) 00:16:36 437.405
HUMSAT D 29 May 00:04:45 00:06:18 11° 272° (W) 00:07:35 437.325/437.525
ISS 29 May 00:10:17 00:13:21 37° 334° (NNW) 00:16:25 145.825
ITUPSAT 1 29 May 00:17:46 00:18:55 11° 60° (ENE) 00:20:20 437.325
QB50P1 29 May 00:20:49 00:25:08 75° 284° (WNW) 00:29:22 145.935-145.965
BEESAT 29 May 00:23:08 00:25:08 13° 61° (ENE) 00:27:21 436.000
POLYITAN 1 29 May 00:24:04 00:28:21 68° 285° (WNW) 00:32:33 437.675
TIGRISAT 29 May 00:24:20 00:28:17 33° 290° (WNW) 00:32:06 435.000
SWISSCUBE 29 May 00:30:59 00:33:52 17° 64° (ENE) 00:36:56 437.505
PCSat 29 May 00:38:17 00:43:35 63° 116° (ESE) 00:48:59 145.827
O/OREOS (USA 219) 29 May 00:39:32 00:43:31 31° 59° (ENE) 00:47:30 437.305
UNISAT 6 29 May 00:46:19 00:49:33 20° 294° (WNW) 00:52:39 437.425
CUBEBUG 1 29 May 00:51:02 00:53:23 14° 271° (W) 00:55:33 437.445
NANOSAT C BR1 29 May 00:51:40 00:55:35 35° 289° (WNW) 00:59:25 145.865
Cosmos 2499 29 May 00:53:40 00:58:23 19° 63° (ENE) 01:03:25 435.465 / 435.565
BEESAT 2 29 May 00:58:01 00:58:47 11° 34° (NE) 00:59:44 435.950
GONETS M04 29 May 01:00:22 01:09:08 72° 266° (W) 01:17:46
QB50P2 29 May 01:01:34 01:05:13 27° 291° (WNW) 01:08:46 145.880/145.840
POPSAT HIP 1 29 May 01:13:34 01:16:53 21° 293° (WNW) 01:20:03 437.405
DUCHIFAT 1 29 May 01:13:40 01:16:59 22° 293° (WNW) 01:20:11 145.980
Oscar 19 29 May 01:16:10 01:19:00 15° 89° (E) 01:22:04 437.125/150
SPROUT 29 May 01:20:01 01:23:28 22° 267° (W) 01:26:51 437.525
BUGSAT 1 29 May 01:26:46 01:30:08 22° 292° (WNW) 01:33:23 437.445
VERMONT LUNAR 29 May 01:29:29 01:32:22 30° 160° (SSE) 01:35:16 437.305
KKS-1 29 May 01:30:04 01:30:29 10° 61° (ENE) 01:31:08 437.445
DANDE 29 May 01:30:35 01:36:58 29° 276° (W) 01:42:04 436.750
TISAT 1 29 May 01:34:53 01:38:08 20° 268° (W) 01:41:18 437.305
BEESAT 3 29 May 01:42:09 01:45:37 26° 46° (NE) 01:49:05 437.485
ISS 29 May 01:48:19 01:50:26 16° 353° (N) 01:52:34 145.825
CUSAT 1 29 May 01:48:57 01:52:32 15° 282° (WNW) 01:55:25 437.405
SO-50 29 May 01:50:09 01:52:48 16° 110° (ESE) 01:55:42 436.795
ITUPSAT 1 29 May 01:51:24 01:56:09 90° 96° (E) 02:00:57 437.325
BEESAT 29 May 01:57:40 02:02:25 77° 257° (WSW) 02:07:12 436.000
SWISSCUBE 29 May 02:06:39 02:11:19 58° 259° (W) 02:16:02 437.505
O/OREOS (USA 219) 29 May 02:19:06 02:22:50 26° 256° (WSW) 02:26:31 437.305
PCSat 29 May 02:23:12 02:27:30 23° 316° (NW) 02:31:43 145.827
PHONESAT 2.4 29 May 02:24:55 02:27:52 26° 157° (SSE) 02:30:50 2401.200-2431.200
Gurwin Techsat 1B 29 May 02:25:07 02:28:51 20° 91° (E) 02:32:46 435.225
STARS 29 May 02:25:20 02:28:51 24° 67° (ENE) 02:32:27 437.465
BEESAT 2 29 May 02:33:38 02:37:45 66° 55° (NE) 02:41:47 435.950
AIST 2 29 May 02:38:14 02:41:45 25° 45° (NE) 02:45:16 435.215
Cosmos 2499 29 May 02:45:22 02:52:25 75° 265° (W) 02:59:36 435.465 / 435.565
Oscar 19 29 May 02:53:47 02:58:55 65° 287° (WNW) 03:03:59 437.125/150
GONETS M04 29 May 03:00:39 03:04:33 13° 284° (WNW) 03:07:46
KKS-1 29 May 03:01:59 03:06:29 89° 281° (W) 03:11:00 437.445
VERMONT LUNAR 29 May 03:06:08 03:09:20 65° 176° (S) 03:12:31 437.305
ITAMSAT 1 29 May 03:12:45 03:17:54 56° 100° (E) 03:23:03 435.822/435.867
MOZHAYETS 4 29 May 03:14:49 03:15:43 11° 62° (ENE) 03:16:52
BEESAT 3 29 May 03:19:58 03:23:38 32° 244° (WSW) 03:27:11 437.485
ISS 29 May 03:25:20 03:27:45 19° 13° (NNE) 03:30:11 145.825
SO-50 29 May 03:28:10 03:32:50 65° 306° (NW) 03:37:41 436.795
HORYU 2 29 May 03:47:03 03:50:03 18° 92° (E) 03:53:11 437.375
STARS 29 May 04:01:06 04:05:10 33° 264° (W) 04:09:12 437.465
AO-7 29 May 04:02:06 04:09:00 29° 93° (E) 04:16:07 29.400- 29.500
PHONESAT 2.4 29 May 04:02:15 04:05:42 62° 171° (S) 04:09:08 2401.200-2431.200
Gurwin Techsat 1B 29 May 04:04:03 04:09:13 53° 289° (WNW) 04:14:22 435.225
BEESAT 2 29 May 04:13:50 04:15:20 12° 250° (WSW) 04:16:37 435.950
AIST 2 29 May 04:16:31 04:20:26 37° 244° (WSW) 04:24:15 435.215
Cosmos 2499 29 May 04:42:52 04:44:28 11° 282° (WNW) 04:45:30 435.465 / 435.565
VERMONT LUNAR 29 May 04:43:16 04:46:24 49° 193° (SSW) 04:49:30 437.305
MOZHAYETS 4 29 May 04:47:44 04:52:20 86° 257° (WSW) 04:56:55
Cosmos 2491 29 May 04:50:17 04:55:44 18° 58° (ENE) 05:01:38 435.465 / 435.565
ITAMSAT 1 29 May 04:53:16 04:57:02 20° 297° (WNW) 05:00:39 435.822/435.867
JAS-2 29 May 04:55:05 05:00:17 84° 102° (ESE) 05:05:42 435.910
CUBESAT XI-V 29 May 04:59:42 05:00:57 11° 62° (ENE) 05:02:27 437.345
ISS 29 May 05:01:22 05:04:38 67° 32° (NNE) 05:07:53 145.825
SO-50 29 May 05:12:01 05:14:25 13° 328° (NNW) 05:16:42 436.795
HORYU 2 29 May 05:22:44 05:26:56 42° 289° (WNW) 05:31:05 437.375
STRAND 1 29 May 05:36:48 05:39:11 14° 60° (ENE) 05:41:48 437.568
PHONESAT 2.4 29 May 05:40:16 05:43:41 59° 190° (S) 05:47:07 2401.200-2431.200
YUBILEINY 29 May 05:45:19 05:48:54 14° 77° (ENE) 05:53:09 435.215
AO-7 29 May 05:54:09 06:02:25 65° 293° (WNW) 06:10:38 29.400- 29.500
Cubesat XI-IV 29 May 06:05:32 06:08:37 16° 89° (E) 06:11:56 437.490
VERMONT LUNAR 29 May 06:21:03 06:23:11 16° 208° (SSW) 06:25:15 437.305
CUBESAT XI-V 29 May 06:33:10 06:37:46 84° 257° (WSW) 06:42:26 437.345
ISS 29 May 06:38:48 06:40:43 15° 228° (SW) 06:42:34 145.825
JAS-2 29 May 06:42:35 06:44:51 13° 300° (WNW) 06:46:53 435.910
Cosmos 2491 29 May 06:45:23 06:54:18 84° 82° (E) 07:03:06 435.465 / 435.565
PRISM 29 May 06:53:29 06:57:33 76° 75° (ENE) 07:01:40 437.425
M-CUBED/EXP-1 PRIME 29 May 07:04:46 07:08:53 66° 70° (ENE) 07:12:41 437.505
AUBIESAT-1 29 May 07:10:35 07:14:39 66° 71° (ENE) 07:18:25 437.475
STRAND 1 29 May 07:12:41 07:17:47 81° 256° (WSW) 07:22:56 437.568
PHONESAT 2.4 29 May 07:18:40 07:21:29 23° 205° (SSW) 07:24:16 2401.200-2431.200
CUTE-I 29 May 07:22:31 07:27:55 79° 103° (ESE) 07:33:18 437.470
AIST 1 29 May 07:25:04 07:29:17 46° 78° (ENE) 07:33:32
RS-15 29 May 07:32:04 07:40:24 28° 105° (ESE) 07:49:17 29.354- 29.394
YUBILEINY 29 May 07:35:41 07:44:24 75° 94° (E) 07:53:08 435.215
Cubesat XI-IV 29 May 07:43:57 07:49:18 67° 287° (WNW) 07:54:38 437.490
PCSat 29 May 07:44:30 07:46:19 12° 33° (NNE) 07:48:21 145.827
AO-7 29 May 07:49:05 07:53:48 16° 313° (NW) 07:58:06 29.400- 29.500
GOMX 1 29 May 08:28:43 08:32:56 24° 90° (E) 08:37:04 467.674
BRITE-PL 29 May 08:38:23 08:43:49 47° 97° (E) 08:48:58 437.365/2234.400
M-CUBED/EXP-1 PRIME 29 May 08:43:25 08:44:04 10° 265° (W) 08:44:27 437.505
Cosmos 2491 29 May 08:44:03 08:50:10 20° 280° (W) 08:55:51 435.465 / 435.565
CANX-2 29 May 08:47:32 08:50:39 20° 92° (E) 08:53:52 2200.000
CUTE 1.7 + AOD 2 29 May 08:50:43 08:53:48 20° 92° (E) 08:56:58 437.475
AIST 1 29 May 09:03:56 09:06:36 15° 273° (W) 09:09:05
CUTE-I 29 May 09:04:19 09:07:24 15° 300° (WNW) 09:10:16 437.470
Cosmos 2504 29 May 09:08:48 09:15:38 31° 87° (E) 09:22:16 435.465 / 435.565
SEEDS 29 May 09:08:58 09:12:27 26° 94° (E) 09:15:59 437.485
DOVE 4 29 May 09:16:40 09:21:31 44° 97° (E) 09:26:05 437.250
ANTELSAT 29 May 09:17:36 09:19:24 12° 63° (ENE) 09:21:25 437.575/2403.000
COMPASS 1 29 May 09:18:02 09:21:32 26° 95° (E) 09:25:03 437.405
PCSat 29 May 09:25:45 09:31:05 55° 56° (NE) 09:36:24 145.827
AAUSAT CUBESAT 2 29 May 09:27:52 09:31:28 28° 95° (E) 09:35:05 437.432
HO-68 29 May 09:30:38 09:37:42 59° 101° (ESE) 09:44:44 435.675
YUBILEINY 29 May 09:35:17 09:42:16 25° 297° (WNW) 09:48:57 435.215
DELFI C3 29 May 09:39:25 09:40:54 12° 89° (E) 09:42:36 145.870
RS-15 29 May 09:40:48 09:51:42 79° 305° (NW) 10:03:00 29.354- 29.394
TIGRISAT 29 May 09:47:07 09:50:45 23° 67° (ENE) 09:54:27 435.000
UWE-3 29 May 09:53:08 09:56:07 19° 91° (E) 09:59:11 435.000/436.395/437.385
FUNcube-1 29 May 09:56:32 09:58:58 15° 89° (E) 10:01:33 145.935
GOMX 1 29 May 10:06:12 10:11:17 43° 290° (WNW) 10:16:02 467.674
UNISAT 6 29 May 10:07:57 10:12:16 38° 71° (ENE) 10:16:34 437.425
NANOSAT C BR1 29 May 10:09:57 10:12:44 18° 66° (ENE) 10:15:40 145.865
CINEMA 3 29 May 10:12:49 10:17:33 79° 102° (ESE) 10:22:00 145.822/145.860
BRITE-PL 29 May 10:17:25 10:22:00 25° 295° (WNW) 10:26:19 437.365/2234.400
QB50P2 29 May 10:19:21 10:22:40 23° 68° (ENE) 10:26:06 145.880/145.840
SO-50 29 May 10:19:28 10:23:13 21° 40° (NE) 10:27:03 436.795
CANX-2 29 May 10:22:53 10:26:42 33° 289° (WNW) 10:30:28 2200.000
CUTE 1.7 + AOD 2 29 May 10:26:00 10:29:50 34° 289° (WNW) 10:33:38 437.475
DUCHIFAT 1 29 May 10:30:21 10:33:57 28° 69° (ENE) 10:37:39 145.980
POPSAT HIP 1 29 May 10:30:33 10:34:13 29° 69° (ENE) 10:37:58 437.405
UKube-1 29 May 10:34:10 10:37:01 17° 92° (E) 10:40:00 .
ZACube-1 29 May 10:36:59 10:41:06 43° 98° (E) 10:45:08 437.345
BUGSAT 1 29 May 10:41:40 10:45:03 25° 69° (ENE) 10:48:34 437.445
Oscar 11 29 May 10:43:14 10:47:34 87° 284° (WNW) 10:51:52 145.826/435.025
SEEDS 29 May 10:44:41 10:48:14 26° 290° (WNW) 10:51:41 437.485
DX 1 29 May 10:46:16 10:49:54 25° 95° (E) 10:53:35 434.975-435.025
CUBEBUG 2 29 May 10:46:48 10:51:16 89° 299° (WNW) 10:55:33 437.445
ANTELSAT 29 May 10:50:57 10:55:38 78° 258° (WSW) 11:00:18 437.575/2403.000
COMPASS 1 29 May 10:53:40 10:57:09 26° 291° (WNW) 11:00:35 437.405
DOVE 4 29 May 10:55:00 10:58:57 23° 295° (WNW) 11:02:39 437.250
Cosmos 2504 29 May 11:00:40 11:08:44 54° 284° (WNW) 11:16:14 435.465 / 435.565
AAUSAT CUBESAT 2 29 May 11:03:37 11:06:58 24° 291° (WNW) 11:10:15 437.432
PCSat 29 May 11:10:02 11:14:09 22° 252° (WSW) 11:18:06 145.827
VELOX 1 29 May 11:10:43 11:14:20 24° 94° (E) 11:18:00 145.980
DELFI C3 29 May 11:12:29 11:16:25 53° 286° (WNW) 11:20:18 145.870
QB50P1 29 May 11:13:34 11:17:51 85° 77° (ENE) 11:22:11 145.935-145.965
POLYITAN 1 29 May 11:17:03 11:21:23 86° 262° (W) 11:25:44 437.675
DANDE 29 May 11:18:22 11:20:19 11° 75° (ENE) 11:22:57 436.750
HO-68 29 May 11:19:04 11:25:04 29° 299° (WNW) 11:30:53 435.675
TIGRISAT 29 May 11:22:57 11:27:19 37° 263° (W) 11:31:37 435.000
ESTCUBE 1 29 May 11:24:12 11:27:33 21° 92° (E) 11:31:01 437.505/2401.250
CUSAT 1 29 May 11:28:11 11:33:06 19° 81° (E) 11:38:40 437.405
UWE-3 29 May 11:28:48 11:32:53 38° 289° (WNW) 11:36:49 435.000/436.395/437.385
FUNcube-1 29 May 11:31:30 11:35:39 46° 288° (WNW) 11:39:40 145.935
AISAT 29 May 11:42:46 11:47:13 55° 100° (E) 11:51:37 437.250
NANOSAT C BR1 29 May 11:44:10 11:48:16 44° 262° (W) 11:52:23 145.865
HUMSAT D 29 May 11:45:09 11:49:18 69° 285° (WNW) 11:53:22 437.325/437.525
UNISAT 6 29 May 11:45:28 11:49:11 22° 267° (W) 11:52:45 437.425
CINEMA 3 29 May 11:52:13 11:54:05 12° 299° (WNW) 11:55:40 145.822/145.860
QB50P2 29 May 11:54:31 11:58:25 33° 264° (W) 12:02:18 145.880/145.840
RS-15 29 May 11:56:52 12:06:17 30° 334° (NNW) 12:15:51 29.354- 29.394
SO-50 29 May 11:59:20 12:04:16 66° 240° (WSW) 12:09:07 436.795
50 SAT 29 May 12:03:55 12:07:47 73° 285° (WNW) 12:11:37 437.505
DUCHIFAT 1 29 May 12:06:06 12:09:44 26° 265° (W) 12:13:21 145.980
POPSAT HIP 1 29 May 12:06:28 12:10:05 25° 266° (W) 12:13:39 437.405
GONETS M04 29 May 12:06:47 12:13:45 28° 83° (E) 12:21:00
UKube-1 29 May 12:09:15 12:13:24 43° 289° (WNW) 12:17:30 .
ZACube-1 29 May 12:14:16 12:17:09 17° 295° (WNW) 12:19:52 437.345
BUGSAT 1 29 May 12:16:50 12:20:27 28° 265° (W) 12:24:05 437.445
DX 1 29 May 12:22:18 12:26:09 30° 291° (WNW) 12:29:57 434.975-435.025
Oscar 19 29 May 12:32:59 12:37:05 25° 66° (ENE) 12:41:18 437.125/150
CUBEBUG 1 29 May 12:36:50 12:41:18 77° 286° (WNW) 12:45:44 437.445
VELOX 1 29 May 12:46:54 12:50:57 33° 290° (WNW) 12:54:55 145.980
DANDE 29 May 12:54:38 13:01:52 60° 94° (E) 13:10:16 436.750
ITAMSAT 1 29 May 12:55:35 12:57:31 12° 59° (ENE) 12:59:43 435.822/435.867
ESTCUBE 1 29 May 13:00:21 13:04:35 39° 289° (WNW) 13:08:47 437.505/2401.250
SPROUT 29 May 13:05:08 13:09:26 61° 100° (E) 13:13:43 437.525
CUSAT 1 29 May 13:07:08 13:14:44 88° 99° (E) 13:23:10 437.405
TISAT 1 29 May 13:17:41 13:21:55 60° 101° (E) 13:26:07 437.305
AISAT 29 May 13:20:36 13:23:23 16° 296° (WNW) 13:26:01 437.250
Cosmos 2499 29 May 13:33:02 13:37:07 16° 81° (E) 13:41:30 435.465 / 435.565
Gurwin Techsat 1B 29 May 13:46:22 13:51:01 33° 68° (ENE) 13:55:46 435.225
ITUPSAT 1 29 May 13:52:15 13:55:57 22° 93° (E) 13:59:45 437.325
BEESAT 29 May 13:57:57 14:01:54 26° 94° (E) 14:05:56 436.000
GONETS M04 29 May 14:01:15 14:10:02 64° 282° (WNW) 14:18:49
SWISSCUBE 29 May 14:06:38 14:10:59 34° 97° (E) 14:15:22 437.505
Oscar 19 29 May 14:11:16 14:16:13 43° 262° (W) 14:21:10 437.125/150
RS-15 29 May 14:15:11 14:23:36 23° 9° (N) 14:32:25 29.354- 29.394
ITAMSAT 1 29 May 14:31:09 14:36:20 88° 76° (ENE) 14:41:34 435.822/435.867
DANDE 29 May 14:38:53 14:45:44 33° 295° (WNW) 14:53:09 436.750
SPROUT 29 May 14:42:50 14:45:04 14° 296° (WNW) 14:47:06 437.525
HORYU 2 29 May 14:45:58 14:49:06 19° 66° (ENE) 14:52:21 437.375
O/OREOS (USA 219) 29 May 14:52:17 14:56:15 32° 105° (ESE) 15:00:17 437.305
CUSAT 1 29 May 14:52:37 14:58:41 22° 300° (WNW) 15:04:42 437.405
KKS-1 29 May 14:53:52 14:56:44 17° 91° (E) 14:59:45 437.445
TISAT 1 29 May 14:55:04 14:57:14 13° 296° (WNW) 14:59:14 437.305
AO-7 29 May 15:01:27 15:09:00 43° 62° (ENE) 15:16:43 29.400- 29.500
JAS-2 29 May 15:07:26 15:13:18 39° 70° (ENE) 15:18:39 435.910
Cosmos 2499 29 May 15:21:22 15:29:27 89° 98° (E) 15:36:58 435.465 / 435.565
Gurwin Techsat 1B 29 May 15:26:15 15:31:00 32° 265° (W) 15:35:43 435.225
ITUPSAT 1 29 May 15:29:32 15:34:01 40° 290° (WNW) 15:38:27 437.325
BEESAT 29 May 15:35:30 15:39:49 34° 291° (WNW) 15:44:05 436.000
SWISSCUBE 29 May 15:44:43 15:48:43 26° 293° (WNW) 15:52:39 437.505
STARS 29 May 15:50:02 15:54:14 41° 98° (E) 15:58:25 437.465
GONETS M04 29 May 16:05:05 16:09:11 13° 307° (NW) 16:12:41
ITAMSAT 1 29 May 16:15:15 16:16:41 11° 274° (W) 16:17:44 435.822/435.867
HORYU 2 29 May 16:21:12 16:25:29 43° 261° (W) 16:29:45 437.375
RS-15 29 May 16:29:09 16:40:01 46° 40° (NE) 16:51:28 29.354- 29.394
KKS-1 29 May 16:29:22 16:33:40 46° 288° (WNW) 16:37:54 437.445
BEESAT 2 29 May 16:30:43 16:31:42 11° 109° (ESE) 16:32:54 435.950
O/OREOS (USA 219) 29 May 16:31:54 16:35:44 26° 303° (WNW) 16:39:30 437.305
MOZHAYETS 4 29 May 16:43:09 16:46:36 22° 92° (E) 16:50:11
JAS-2 29 May 16:52:35 16:58:29 33° 264° (W) 17:03:43 435.910
AO-7 29 May 16:53:52 17:01:47 46° 261° (W) 17:09:41 29.400- 29.500
CUTE-I 29 May 17:07:08 17:10:38 19° 63° (ENE) 17:14:20 437.470
BEESAT 3 29 May 17:12:39 17:16:26 39° 117° (ESE) 17:20:17 437.485
Cosmos 2499 29 May 17:18:33 17:23:42 18° 298° (WNW) 17:28:18 435.465 / 435.565
STARS 29 May 17:27:12 17:30:25 19° 294° (WNW) 17:33:31 437.465
Cubesat XI-IV 29 May 17:27:35 17:31:59 28° 66° (ENE) 17:36:32 437.490
